Location: ???????
(55.9142°N, 37.8256°E)
Time: 02:34:29
(UTC+00:00)

Lacrosse 4 Rocket - Visible Passes

Search period start: 19 July 2024 00:00
Search period end: 29 July 2024 00:00
Orbit: 525 x 593 km, 68.0° (Epoch: 18 July)

Date Brightness Start Highest point End Pass type
(mag) Time Alt. Az. Time Alt. Az. Time Alt. Az.
19 Jul 1.7 21:37:14 23° S 21:39:30 48° ESE 21:43:31 10° NE visible
19 Jul 2.7 23:14:06 10° WSW 23:17:55 37° NW 23:21:50 10° NNE visible
20 Jul 3.5 19:59:27 10° ESE 20:00:21 11° ESE 20:01:16 10° E visible
20 Jul 1.4 21:35:13 22° SSW 21:37:44 62° SE 21:41:52 10° NE visible
20 Jul 3.0 23:12:35 10° W 23:16:17 32° NNW 23:20:05 10° NNE visible
21 Jul 3.3 19:57:15 12° SE 19:58:26 14° ESE 20:00:33 10° ENE visible
21 Jul 1.3 21:33:06 19° SSW 21:35:58 78° SE 21:40:10 10° NE visible
21 Jul 3.2 23:11:06 10° W 23:14:40 28° NNW 23:18:20 10° NNE visible
22 Jul 3.0 19:55:05 15° SE 19:56:32 17° ESE 19:59:17 10° ENE visible
22 Jul 1.3 21:30:57 15° SW 21:34:14 85° NW 21:38:26 10° NE visible
22 Jul 3.5 23:09:37 10° W 23:13:04 25° NNW 23:16:35 10° NNE visible
23 Jul 2.7 19:52:49 17° SSE 19:54:38 22° ESE 19:57:51 10° ENE visible
23 Jul 1.6 21:28:40 12° SW 21:32:30 69° NW 21:36:41 10° NE visible
23 Jul 3.7 23:08:08 10° WNW 23:11:28 23° NNW 23:14:51 10° NNE visible
24 Jul 2.4 19:50:27 17° SSE 19:52:44 27° ESE 19:56:17 10° ENE visible
24 Jul 2.0 21:26:44 10° WSW 21:30:46 57° NW 21:34:55 10° NE visible
24 Jul 3.9 23:06:41 10° WNW 23:09:51 21° NNW 23:13:06 10° NNE visible
25 Jul 2.0 19:47:55 15° S 19:50:52 34° ESE 19:54:40 10° NE visible
25 Jul 2.3 21:25:05 10° WSW 21:29:03 47° NW 21:33:08 10° NE visible
25 Jul 4.0 23:05:12 10° WNW 23:08:15 19° NNW 23:11:21 10° NNE visible
26 Jul 1.7 19:45:11 10° SSW 19:49:00 43° ESE 19:52:59 10° NE visible
26 Jul 2.7 21:23:27 10° WSW 21:27:20 40° NW 21:31:20 10° NNE visible
26 Jul 4.2 23:03:43 10° WNW 23:06:39 18° NNW 23:09:37 10° NNE visible
27 Jul 1.4 19:43:10 10° SSW 19:47:09 55° SE 19:51:16 10° NE visible
27 Jul 3.1 21:21:51 10° W 21:25:38 34° NW 21:29:31 10° NNE visible
27 Jul 4.2 23:02:13 10° NW 23:05:03 17° N 23:07:55 10° NNE visible
28 Jul 1.3 19:41:15 10° SSW 19:45:19 70° SE 19:49:30 10° NE visible
28 Jul 3.4 21:20:16 10° W 21:23:56 30° NNW 21:27:42 10° NNE visible
28 Jul 4.3 23:00:41 10° NW 23:03:26 17° N 23:06:13 10° NE visible
